Location: Chateh
(58.6667°N, 118.6000°W)
Time: 19:52:11
(UTC+00:00)

Gurwin Techsat 1B - Pass Details

Date: 04 December 2023
Orbit: 810 x 813 km, 98.9° (Epoch: 21 February)

Event Time Altitude Azimuth Distance (km) Brightness Sun altitude
Rises 13:39:10 0° 17° (NNE) 3,352 11.9 -19.6°
Reaches altitude 10° 13:41:59 10° 3° (N) 2,417 11.0 -19.2°
Enters shadow 13:44:58 21° 330° (NNW) 1,774 10.0 -18.8°
